Simultaneous Nadir Overpasses (SNOs) Predictions

Prediction of SNOs between AQUA and GOES-15 Satellite Orbit:

Table of predicted SNOs for the next 14.0 days since TLE Epoch: 7/25/2014
Index Date Time (AQUA) AQUA Lat,Lon GOES-15 Lat,Lon Distance(km) Time Diff (sec)
1 07/26/2014 10:26:08 -0.79,-132.72 -0.20,-135.39 304.37 80
2 07/26/2014 22:47:33 -0.30,-137.92 0.21,-135.41 284.17 80
3 07/28/2014 22:35:23 0.31,-134.96 0.21,-135.45 54.79 80
4 07/30/2014 22:23:13 0.93,-132.01 0.21,-135.48 393.36 80
5 07/31/2014 10:44:28 0.16,-137.17 -0.22,-135.47 194.09 80
6 08/02/2014 10:32:19 -0.47,-134.22 -0.22,-135.49 143.74 80
7 08/02/2014 22:53:43 -0.61,-139.42 0.23,-135.51 445.19 80
8 08/04/2014 10:20:09 -1.10,-131.27 -0.22,-135.51 480.69 80
9 08/04/2014 22:41:33 0.02,-136.47 0.24,-135.52 108.44 80
10 08/06/2014 22:29:23 0.66,-133.53 0.24,-135.53 227.42 80
11 08/07/2014 10:50:39 0.43,-138.69 -0.25,-135.51 360.77 80




NCC Satellite Simultaneous Nadir Overpasses (SNOs) Prediction Service
